Home > Weather > Sumqayit > Past weeks

Flag for Azerbaijan Past Weather in Sumqayit, Azerbaijan — Yesterday and Last 2 Weeks

Now
66 °F

Passing clouds.


Feels Like: 66 °F
Forecast: 62 / 72 °F
Wind: 7 mph from North

Location: Baku / Bine Airport

Current Time: May 25, 2016 at 1:49:19 AM

Latest Report: May 25, 2016 at 1:00 AM


Visibility: N/A

Pressure: 29.68 "Hg

Humidity: 83%

Dew Point: 61 °F

Location of SumqayitLocation

Past Weather in Sumqayit — Graph

°F

Sumqayit Temperature Yesterday

Maximum temperature yesterday: 81 °F (at 1:00 PM)
Minimum temperature yesterday: 63 °F (at 11:30 PM)
Average temperature yesterday: 72 °F

High & Low Weather Summary for the Past Weeks

 TemperatureHumidityPressure
High81 °F (May 16, 2:30 PM)100% (May 14, 12:00 AM)30.18 "Hg (May 14, 12:00 AM)
Low54 °F (May 10, 4:00 AM)34% (May 22, 10:30 AM)29.62 "Hg (May 24, 6:00 PM)
Average67 °F74%29.88 "Hg
* Reported May 10 12:00 AM — May 25 12:30 AM, Sumqayit, Weather by CustomWeather, © 2016

Note: Actual official high and low records may vary slightly from our data, if they occured in-between our weather recording intervals... More about our weather records

Advertising

Sumqayit Weather History for the Previous 24 Hours

Scroll right to see more
 ConditionsComfort  
Time TempWeatherWind HumidityBarometerVisibility
12:30 AM
Wed, May 25
64 °FPassing clouds.7 mph88%29.68 "HgN/A
12:00 AM64 °FPassing clouds.9 mph88%29.71 "HgN/A
11:30 PM
Tue, May 24
63 °FPassing clouds.6 mph88%29.71 "HgN/A
11:00 PM64 °FClear.6 mph88%29.71 "Hg10 mi
10:30 PM64 °FPassing clouds.6 mph88%29.71 "HgN/A
10:00 PM66 °FPassing clouds.6 mph83%29.71 "HgN/A
9:30 PM66 °FPassing clouds.8 mph83%29.71 "HgN/A
9:00 PM68 °FPartly cloudy.7 mph78%29.71 "HgN/A
8:30 PM68 °FPartly cloudy.7 mph78%29.68 "HgN/A
8:00 PM70 °FPartly cloudy.12 mph73%29.68 "HgN/A
7:30 PM72 °FPartly sunny.12 mph78%29.62 "HgN/A
7:00 PM77 °FPartly sunny.7 mph65%29.62 "HgN/A
6:30 PM79 °FPartly sunny.3 mph58%29.62 "HgN/A
6:00 PM77 °FSunny.5 mph61%29.62 "Hg10 mi
5:30 PM77 °FSunny.9 mph61%29.65 "Hg10 mi
5:00 PM75 °FPartly sunny.12 mph65%29.68 "HgN/A
4:30 PM73 °FOvercast.10 mph69%29.65 "HgN/A
4:00 PM75 °FOvercast.13 mph61%29.65 "HgN/A
3:30 PM79 °FPartly sunny.14 mph54%29.68 "HgN/A
3:00 PM81 °FSunny.12 mph48%29.65 "Hg10 mi
2:30 PM81 °FSunny.15 mph51%29.68 "Hg10 mi
2:00 PM81 °FSunny.13 mph54%29.68 "Hg10 mi
1:30 PM81 °FSunny.12 mph54%29.68 "Hg10 mi
1:00 PM81 °FSunny.10 mph51%29.71 "Hg10 mi
12:30 PM79 °FSunny.10 mph54%29.71 "Hg10 mi
12:00 PM77 °FSunny.14 mph65%29.71 "Hg10 mi
11:30 AM77 °FSunny.13 mph65%29.71 "Hg10 mi
11:00 AM75 °FPassing clouds.14 mph69%29.71 "HgN/A
10:30 AM75 °FScattered clouds.14 mph69%29.71 "HgN/A
10:00 AM75 °FPassing clouds.14 mph69%29.71 "HgN/A
9:30 AM73 °FPassing clouds.15 mph74%29.71 "HgN/A
9:00 AM72 °FPassing clouds.15 mph78%29.71 "HgN/A
8:30 AM72 °FPassing clouds.16 mph78%29.71 "HgN/A
8:00 AM72 °FPassing clouds.15 mph78%29.71 "HgN/A
7:30 AM72 °FPassing clouds.15 mph78%29.71 "HgN/A
7:00 AM70 °FPassing clouds.13 mph83%29.71 "HgN/A
6:30 AM68 °FSunny.8 mph88%29.71 "Hg10 mi
6:00 AM66 °FSunny.8 mph94%29.71 "Hg10 mi
5:30 AM66 °FSunny.15 mph88%29.71 "Hg10 mi
5:00 AM66 °FClear.14 mph88%29.71 "Hg10 mi
4:30 AM66 °FClear.13 mph88%29.71 "Hg10 mi
4:00 AM66 °FClear.8 mph88%29.71 "Hg10 mi
3:30 AM66 °FClear.10 mph88%29.71 "Hg10 mi
3:00 AM68 °FClear.7 mph78%29.74 "Hg10 mi
2:30 AM68 °FPassing clouds.7 mph83%29.74 "HgN/A
2:00 AM68 °FPassing clouds.7 mph83%29.74 "HgN/A
1:30 AM68 °FClear.7 mph83%29.77 "Hg10 mi
1:00 AM66 °FClear.10 mph88%29.74 "Hg10 mi
Weather by CustomWeather, © 2016

See weather overviewHow to use our weather pages